Regional Weather Roundup
Issued by NWS

Home | Current Version | Previous Version | Graphics & Text | Print | Product List | Glossary On
Versions: 1 2 3 4 5 6 7 8 9 10 11 12 13 14 15 16 17 18 19 20 21 22 23 24 25 26 27 28 29 30 31 32 33 34 35 36 37 38 39 40 41 42 43 44 45 46 47 48 49 50
000
ASUS44 KMEG 301010
RWRTN
TENNESSEE HOURLY STATE WEATHER ROUNDUP
NATIONAL WEATHER SERVICE MEMPHIS TN
500 AM CDT SUN APR 30 2017

TNZ002-004-019-021-049-052-054-088>092-301100-
WEST TENNESSEE

CITY           SKY/WX    TMP DP  RH WIND       PRES   REMARKS
MEMPHIS INTL   CLOUDY    76  69  79 SE12      29.75R
NWS MEMPHIS      N/A     75 N/A N/A MISG        N/A
JACKSON        CLOUDY    70  66  87 N13       29.86R
DYERSBURG      LGT RAIN  64  63  94 E8        29.82F
SOMERVILLE     CLOUDY    75  68  78 VRB5G13   29.80R
UNION CITY       N/A     64  64 100 S6        29.86R FOG
BOLIVAR        CLOUDY    73  66  78 SE7       29.82R
HUNTINGDON     CLOUDY    70  63  78 VRB6G17   29.87R
LEXINGTON      CLOUDY    73  64  73 SW6G14    29.86R
SAVANNAH       MOCLDY    73  66  78 S6G14     29.83R
$$

TNZ008-025-027-028-033-062-065-066-301100-
NORTH MIDDLE TENNESSEE

CITY           SKY/WX    TMP DP  RH WIND       PRES   REMARKS
NASHVILLE      CLOUDY    73  65  75 S9        29.88F
PORTLAND       PTCLDY    72  64  78 S8        29.88F
CLARKSVILLE    CLOUDY    74  63  68 S9        29.86R
SMYRNA         CLOUDY    73  66  78 SE7       29.89F
COOKEVILLE     CLEAR     72  64  78 S9        29.95F
GALLATIN       PTCLDY    72  64  78 SE5       29.91F
CROSSVILLE     PTCLDY    68  64  87 S7G16     30.03S
$$

TNZ061-075-076-078-094-096-097-301100-
SOUTH MIDDLE TENNESSEE

CITY           SKY/WX    TMP DP  RH WIND       PRES   REMARKS
FAYETTEVILLE   CLEAR     72  66  83 S13G18    29.90F
TULLAHOMA      CLEAR     72  63  73 S10       29.93F
WINCHESTER     CLEAR     72  64  78 SE7       29.94F
MCMINNVILLE    CLEAR     73  64  73 SE6       29.93F
COLUMBIA       CLEAR     72  72 100 S9        29.85F
SHELBYVILLE    CLEAR     73  66  78 S10       29.91F
$$

TNZ017-018-042-046-047-301100-
NORTHEAST TENNESSEE

CITY           SKY/WX    TMP DP  RH WIND       PRES   REMARKS
TRI CITIES     PTCLDY    62  60  93 CALM      30.08S
ELIZABETHTON     N/A     59  59 100 CALM      30.09S
$$

TNZ012-013-036-069-073-074-301100-
CENTRAL EAST TENNESSEE

CITY           SKY/WX    TMP DP  RH WIND       PRES   REMARKS
KNOXVILLE      CLOUDY    72  60  66 SW5       30.00F
OAK RIDGE      PTCLDY    73  63  70 CALM      30.03S
DOWNTOWN KNOXV CLEAR     61  61 100 CALM      30.01F FOG
GATLINBURG     CLEAR     64  57  77 E7        30.01S
MORRISTOWN     CLEAR     64  63  94 CALM      30.03F
JACKSBORO      CLEAR     72  64  78 S7        30.04S
$$

TNZ083-085-099-301100-
SOUTHEAST TENNESSEE

CITY           SKY/WX    TMP DP  RH WIND       PRES   REMARKS
CHATTANOOGA    CLOUDY    67  66  97 CALM      30.01R FOG
$$

SKY/WX REPORTED AS FAIR MEANS FEW OR NO CLOUDS BELOW
12 THOUSAND FEET.




USA.gov is the U.S. government's official web portal to all federal, state and local government web resources and services.